Kuchera_Ratio
0.0 0.0 0.0 0.0 0.0 0.0 0.0 0.0 0.0 0.0 0.0 0.0 0.0 0.0 0.0 0.0 0.0 0.0 0.0 0.0 0.0 0.0 0.0 0.0 0.0 0.0 0.0 0.0 0.0 0.0 0.0 0.0 0.0 0.0 0.0 0.0 0.0 0.0 0.0 0.0 0.0 0.0 0.0 0.0 0.0 0.0 0.0
0.0 0.0 0.0 0.0 0.0 0.0 0.0 0.0 0.0 0.0 0.0 0.0 0.0 0.0 0.0 0.0 0.0 0.0 0.0 0.0 0.0 0.0 0.0 0.0 0.0 0.0 0.0 0.0 0.0 0.0 0.0 0.0 0.0 0.0 0.0 0.0 0.0 0.0 0.0 0.0 0.0 0.0 0.0 0.0 0.0 0.0 0.0
0.0 0.0 0.0 0.0 0.0 0.0 0.0 0.0 0.0 0.0 0.0 0.0 0.0 0.0 0.0 0.0 0.0 0.0 0.0 0.0 0.0 0.0 0.0 0.0 0.0 0.0 0.0 0.0 0.0 0.0 0.0 0.0 0.0 0.0 0.0 0.0 0.0 0.0 0.0 0.0 0.0 0.0 0.0 0.0 0.0 0.0 0.0
0.0 0.0 0.0 0.0 0.0 0.0 0.0 0.0 0.0 0.0 0.0 0.0 0.0 0.0 0.0 0.0 0.0 0.0 0.0 0.0 0.0 0.0 0.0 0.0 0.0 0.0 0.0 0.0 0.0 0.0 0.0 0.0 0.0 0.0 0.0 0.0 0.0 0.0 0.0 0.0 0.0 0.0 0.1 7.5 0.0 0.0 0.0
0.0 0.0 0.0 0.0 0.0 0.0 0.0 0.0 0.0 0.0 0.0 0.0 0.0 0.0 0.0 0.0 0.0 0.0 0.0 0.0 0.0 0.0 0.0 0.0 0.0 0.0 0.0 0.0 0.0 0.0 0.0 0.0 0.0 0.0 0.0 0.0 0.0 0.0 0.0 4.3 7.8 5.1 9.5 6.4 3.9 0.0 0.0
0.0 0.0 0.0 0.0 0.0 0.0 0.0 0.0 0.0 0.0 0.0 0.0 0.0 0.0 0.0 0.0 0.0 0.0 0.0 0.0 0.0 0.0 0.0 0.0 0.0 0.0 0.0 0.0 0.0 0.0 0.0 0.0 0.0 0.0 0.0 0.0 0.0 2.4 2.8 6.8 13.3 10.4 12.7 8.2 9.0 1.9 0.0
0.0 0.0 0.0 0.0 0.0 0.0 0.0 0.0 0.0 0.0 0.0 0.0 0.0 0.0 0.0 0.0 0.0 0.0 0.0 0.0 0.0 0.0 0.0 1.8 0.0 0.0 0.0 0.0 0.0 0.0 0.0 0.0 0.0 0.0 4.0 0.0 6.2 11.8 10.6 4.7 3.8 4.9 8.5 11.6 5.6 0.0 1.7
0.0 0.0 0.0 0.0 0.0 0.0 0.0 0.0 0.0 0.0 0.0 0.0 0.0 0.0 0.0 0.0 0.0 0.0 0.0 0.0 0.0 0.0 3.7 0.0 0.0 0.0 0.0 0.0 0.0 0.0 0.0 0.0 0.0 7.6 5.5 7.4 13.2 4.5 1.8 3.5 5.8 7.2 11.3 12.2 6.1 1.1 2.2
0.0 0.0 0.0 0.0 0.0 0.0 0.0 0.0 0.0 0.0 0.0 0.0 0.0 0.0 0.0 0.0 0.0 0.0 0.0 0.0 0.0 0.0 3.3 1.9 0.0 0.0 0.0 0.0 1.7 2.7 0.0 1.1 6.7 8.2 8.4 12.8 7.5 1.4 5.0 8.0 11.3 10.7 13.7 13.8 12.3 6.0 12.3
0.0 0.0 0.0 0.0 0.0 0.0 0.0 0.0 0.0 0.0 0.0 0.0 0.0 0.0 0.0 0.0 0.0 0.0 0.0 0.0 0.0 0.0 9.8 6.3 0.0 0.0 0.0 0.0 6.2 0.0 0.9 4.8 8.5 13.4 13.3 12.2 7.5 9.9 12.1 12.9 12.8 17.0 7.7 9.4 11.9 13.6 16.9
0.0 0.0 0.0 0.0 0.0 0.0 0.0 0.0 0.0 0.0 0.0 0.0 0.0 0.0 0.0 0.0 0.0 0.0 0.0 0.0 0.0 0.0 16.7 5.0 2.0 0.0 0.0 4.1 5.1 5.8 2.3 8.2 16.0 15.6 14.5 15.5 13.7 14.6 14.8 14.8 12.9 16.4 11.1 14.6 14.7 14.6 14.3
0.0 0.0 0.0 0.0 0.0 0.0 0.0 0.0 0.0 0.0 0.0 0.0 0.0 0.0 0.0 0.0 0.0 0.0 0.0 0.0 0.0 14.2 16.3 11.5 5.6 9.6 10.2 9.1 10.1 7.5 12.5 9.4 11.3 15.6 14.2 14.9 11.6 12.4 13.4 12.8 12.1 10.7 14.6 16.1 14.5 15.6 18.6
0.0 0.0 0.0 0.0 0.0 0.0 0.0 0.0 0.0 0.0 0.0 0.0 0.0 0.0 0.0 0.0 2.4 0.0 0.0 0.0 13.4 16.6 9.5 14.0 14.0 12.2 12.4 14.4 14.0 13.6 16.3 20.1 22.2 24.5 22.8 17.8 15.1 12.4 13.1 17.0 14.1 16.0 19.7 24.9 22.7 21.6 20.0
0.0 0.0 0.0 0.0 0.0 0.0 0.0 0.0 0.0 0.0 0.0 0.0 0.0 0.0 0.0 0.0 0.0 0.0 0.0 8.6 15.0 14.4 16.2 11.7 12.8 13.1 16.0 15.7 15.5 15.9 17.4 20.4 20.3 20.5 23.8 26.0 25.3 18.1 15.0 19.6 21.1 19.9 18.3 24.0 26.6 24.2 22.7
0.0 0.0 0.0 0.0 0.0 0.0 0.0 0.0 0.0 0.0 0.0 0.0 0.0 0.0 0.0 0.0 0.0 0.0 3.1 14.0 17.3 17.6 15.1 16.3 15.2 17.8 17.8 15.9 17.6 17.7 20.5 20.6 19.6 20.3 27.0 27.9 25.8 15.9 18.0 18.3 21.1 24.4 25.4 21.5 23.0 21.3 24.7
0.0 0.0 0.0 0.0 0.0 0.0 0.0 0.0 0.0 0.0 0.0 0.0 0.0 0.0 0.0 0.0 0.0 0.0 8.4 17.5 17.0 14.3 14.6 14.5 22.4 18.0 22.8 20.0 22.6 23.6 21.6 19.2 20.1 18.4 19.4 26.0 29.9 19.4 19.6 19.2 20.2 26.0 23.7 27.9 26.9 26.2 29.2
0.0 0.0 0.0 0.0 0.0 0.0 0.0 0.0 0.0 0.0 0.0 0.0 0.0 2.4 0.0 0.0 0.0 4.7 15.4 18.8 14.8 12.8 13.8 17.0 19.4 22.8 21.6 22.6 24.5 24.3 21.0 19.4 18.3 19.9 19.1 20.6 26.5 25.7 22.8 28.6 28.7 28.3 30.2 30.8 29.6 29.0 27.3
0.0 0.0 0.0 0.0 0.0 0.0 0.0 0.0 0.0 0.0 0.0 0.0 0.9 5.7 0.0 0.0 8.5 15.8 18.1 16.1 13.1 15.0 14.7 15.7 16.3 18.7 21.5 21.2 25.1 24.6 22.0 20.9 17.7 19.1 25.5 21.5 26.7 30.3 26.8 26.4 25.7 26.5 29.5 32.0 31.0 30.0 28.9
0.0 0.0 0.0 0.0 0.0 0.0 0.0 0.0 0.0 0.0 0.0 0.8 5.8 7.1 1.1 0.0 16.1 17.6 17.0 16.3 16.0 17.1 18.1 18.2 19.5 19.0 21.1 23.7 25.5 22.1 20.7 17.1 18.1 20.0 22.6 23.9 29.4 31.0 31.8 28.8 26.2 30.8 27.9 28.4 28.7 30.6 32.0
0.0 0.0 0.0 0.0 0.0 0.0 0.0 0.0 0.0 0.0 0.0 0.0 5.7 9.4 12.6 14.2 17.3 18.5 19.4 20.3 20.5 15.8 18.4 18.0 20.6 20.0 23.7 25.4 23.5 25.5 25.5 19.5 19.8 21.3 16.7 22.4 29.2 29.8 32.9 31.4 30.7 31.8 29.5 28.5 29.0 33.3 32.9
0.0 0.0 0.0 0.0 0.0 0.0 0.0 0.0 0.0 0.0 0.0 0.0 7.8 14.3 15.8 18.3 18.2 19.9 20.3 21.5 21.7 22.5 20.6 20.3 23.3 25.2 26.1 26.0 25.5 25.9 25.2 24.2 23.0 23.2 25.5 25.4 30.1 29.2 27.9 28.6 29.3 29.5 30.4 29.8 31.3 30.3 33.5
0.0 0.0 0.0 0.0 0.0 0.0 0.0 0.0 0.0 0.0 0.0 1.6 10.7 13.8 16.3 17.8 19.7 19.5 21.1 21.8 22.4 23.1 23.6 22.9 24.2 25.0 24.7 27.5 25.5 27.0 26.7 27.5 27.2 25.4 27.1 27.1 30.3 30.5 30.9 28.2 28.0 30.7 29.0 29.2 29.7 30.1 29.9
0.0 0.0 0.0 0.0 0.0 0.0 0.0 0.0 0.0 0.0 0.0 6.6 11.7 13.3 13.3 19.1 19.8 20.7 23.0 22.9 22.9 23.1 22.8 23.6 24.1 24.7 24.2 25.8 24.0 24.4 24.4 25.4 26.4 27.5 28.8 29.6 29.5 30.1 32.0 29.0 29.9 33.4 29.8 29.3 30.3 28.8 29.8
0.0 0.0 0.0 0.0 0.0 0.0 0.0 0.0 0.0 0.0 1.0 5.3 11.1 12.6 13.4 20.2 20.0 22.1 22.3 22.4 22.5 23.1 23.2 23.0 23.8 24.4 23.4 23.9 24.6 24.1 24.3 25.4 26.0 26.7 27.7 29.7 29.5 29.6 31.7 30.3 37.1 28.5 25.2 25.5 28.8 29.0 28.1
0.0 0.0 0.0 0.0 0.0 0.0 0.0 0.0 0.0 0.0 2.8 4.4 10.7 12.2 13.9 20.8 21.0 20.7 21.5 22.2 22.3 22.6 22.7 22.9 22.3 22.6 23.3 23.6 23.9 26.3 27.1 27.2 26.2 25.6 26.5 27.4 29.5 31.2 31.0 33.8 32.1 30.4 26.6 28.8 30.0 29.7 27.1
0.0 0.0 0.0 0.0 0.0 0.0 0.0 0.0 0.0 0.0 1.8 5.2 9.6 12.4 13.9 18.6 22.2 21.9 21.6 22.4 22.1 22.8 21.8 22.4 22.4 21.9 22.6 22.8 25.9 31.0 32.5 31.9 30.7 27.7 23.1 26.5 28.5 29.2 31.9 35.3 36.5 30.1 25.6 25.4 26.6 31.2 23.9
0.0 0.0 0.0 0.0 0.0 0.0 0.0 0.0 0.0 0.0 1.2 5.7 12.0 10.9 13.3 19.8 22.5 22.1 23.2 23.5 23.0 22.8 23.3 23.1 22.6 22.1 21.6 23.3 27.8 30.1 31.9 30.8 32.8 32.8 31.5 31.3 31.6 33.4 33.1 33.6 32.9 28.8 25.4 26.4 33.7 31.2 23.9
0.0 0.0 0.0 0.0 0.0 0.0 0.0 0.0 0.0 0.0 0.0 5.2 13.0 10.8 12.7 20.0 22.1 22.2 22.5 22.7 22.3 22.8 23.6 22.9 23.3 23.4 22.9 26.5 27.5 28.8 29.1 30.2 29.9 31.0 32.1 32.8 34.4 35.0 33.4 33.6 35.0 24.9 24.9 29.1 26.1 24.5 23.7
0.0 0.0 0.0 0.0 0.0 0.0 0.0 0.0 0.0 0.0 0.0 5.8 13.2 13.4 13.7 16.8 19.9 20.9 21.6 21.6 22.2 22.5 22.0 22.7 23.8 23.6 24.3 25.0 26.7 27.4 29.0 29.0 30.4 34.3 28.5 31.5 29.3 32.2 30.5 31.2 25.5 25.2 25.5 24.5 24.3 24.3 24.7